Tracking 31027 objects as of 18-Jul-2025
HD Live streaming from Space Station
objects crossing your sky now

DELTA 1 DEB

Track DELTA 1 DEB now!
10-day predictions


NORAD ID: 10643
Int'l Code: 1976-077D
Perigee: 1,507.0 km
Apogee: 1,777.3 km
Inclination: 102.1 °
Period: 119.0 minutes
Semi major axis: 8013 km
RCS: 0.0787 m2 (small)
Launch date: July 29, 1976
Source: United States (US)
Launch site: AIR FORCE WESTERN TEST RANGE (AFWTR)

Note: This is SATELLITE DEBRIS
Your satellite tracking list
Your tracking list is empty




NASA's NSSDC Master Catalog

Two Line Element Set (TLE):
1 10643U 76077D   25198.43726067  .00000064  00000-0  11060-2 0  9991
2 10643 102.0710 174.4736 0168640 234.2356 256.0045 12.10317718163888
Source of the keplerian elements: AFSPC